Main page
METAR-TAF:

METAR-TAF

Airports :

Verona, Italy

Verona Villafranca Airport

latitude: 45-23N, longitude: 010-52E, elevation: 67 m

Current weather observation

The report was made 40 minutes ago, at 01:20 UTC
Wind 3 kt from the North/Northwest
Temperature 12°C
Humidity 88%
Pressure 1021 hPa
Visibility 10 km or more
no clouds below 1500 m and no cumulonimbus

METAR: LIPX 260120Z 33003KT CAVOK 12/10 Q1021

Time: 04:00 (02:00 UTC)

Forecast

The report was made 3 hours and 0 minutes ago, at 23:00 UTC
Forecast valid from 26 at 00 UTC to 26 at 09 UTC
Wind 5 kt from variable directions
Visibility 10 km or more
Scattered clouds at a height of 6000 ft

TAF: LIPX 252300Z 2600/2609 VRB05KT 9999 SCT060

Weather observations and forecasts of more than 4000 airports (METAR and TAF reports).

The available stations are represented by yellow and red dots on the map.

Hover mouse over dot to see the name of the station.

Then click to see weather observations and forecasts.

To change the map : click on the green buttons with a black cross to zoom in, on the green button with a dash to zoom out, or on the green arrows for adjacent maps.


METAR-TAF: